Cloud_Cover
13 5 5 0 86 6 10 9 5 5 5 13 6 32 94 100 100 100 100 88 100 6 5 9 29 100 96 5 5 2 0 51 60 5 30 23 27 5 77 87 37 5 34
100 6 5 64 1 13 70 53 88 10 4 92 73 100 100 99 83 98 100 98 94 3 4 5 8 75 7 24 4 5 0 6 14 71 95 100 86 8 6 94 26 5 19
100 89 15 81 5 3 51 100 35 96 36 6 37 35 100 90 100 100 100 90 72 11 5 5 5 5 3 4 4 6 5 2 44 5 71 100 72 48 35 15 90 6 46
56 11 46 33 7 5 1 7 100 100 99 5 17 68 56 17 93 6 7 97 45 45 48 10 3 5 5 4 5 3 15 5 11 16 5 25 57 5 91 76 89 42 57
100 100 100 94 5 5 87 41 29 100 100 5 10 7 15 6 12 5 9 52 99 66 5 20 5 3 5 8 5 9 4 3 5 5 5 5 6 5 21 64 84 80 76
100 100 95 29 5 5 11 35 8 4 60 98 8 11 5 96 5 5 5 5 5 5 76 93 9 48 37 20 10 5 1 0 0 4 5 5 5 5 5 5 5 33 100
60 18 91 100 34 5 5 5 4 81 4 18 79 5 5 31 12 5 5 5 5 6 41 100 100 86 93 60 5 5 1 0 0 0 0 3 1 4 4 0 0 0 12
3 6 6 100 80 5 5 5 4 5 5 5 9 5 5 3 2 27 100 100 97 4 5 5 5 57 80 100 82 56 2 0 0 0 0 0 5 0 0 0 0 0 0
3 0 0 25 99 94 13 5 98 39 5 5 5 0 21 2 10 100 100 100 100 97 7 0 1 0 5 99 100 9 5 5 0 0 0 0 0 0 0 0 0 0 0
0 0 0 0 5 49 33 35 5 5 3 3 5 1 0 4 99 100 100 100 100 100 100 3 32 91 82 0 56 23 87 97 6 0 0 1 0 0 0 0 4 7 1
0 0 0 0 1 4 2 2 4 5 2 5 0 0 0 1 91 45 100 100 100 100 100 57 1 2 1 4 0 2 4 16 8 5 0 0 0 0 0 0 0 0 3
0 0 0 4 4 1 0 0 41 60 69 8 0 1 0 1 4 67 29 100 100 100 100 100 78 0 0 1 0 0 0 0 0 0 0 0 0 0 0 0 0 0 0
0 4 2 2 2 3 0 0 1 35 4 5 6 6 5 5 7 25 6 42 100 100 100 90 96 100 54 5 4 0 0 0 0 0 0 0 0 4 5 3 0 0 0
5 7 19 3 5 5 1 0 3 4 5 4 20 53 28 3 5 74 41 7 87 88 100 97 34 49 85 100 100 83 48 5 0 13 77 20 3 2 0 2 1 0 0
5 0 2 5 3 1 4 4 1 5 5 60 9 1 30 0 1 50 41 65 33 15 31 52 43 5 37 5 10 4 33 70 97 100 100 54 5 5 0 0 0 0 0
5 5 2 4 0 0 4 5 5 5 5 22 5 14 37 0 17 100 100 100 9 31 46 35 26 31 4 5 5 5 5 5 5 5 8 97 86 100 100 76 0 0 0
5 0 0 0 0 0 0 3 6 41 65 99 19 56 96 41 35 100 100 90 100 85 83 87 96 96 98 100 100 100 100 100 70 32 44 100 90 5 9 44 91 85 9
5 0 0 1 0 0 0 0 48 19 31 100 100 95 98 94 100 100 100 90 100 100 38 4 28 26 2 4 1 19 42 72 92 100 100 72 58 16 14 63 61 99 21
72 11 2 0 0 0 0 0 0 33 52 100 100 76 88 76 100 100 78 100 100 81 99 62 5 0 5 86 56 54 48 48 9 42 35 99 100 96 84 90 96 99 82
100 78 0 5 0 90 70 100 100 100 100 100 100 100 74 42 100 100 100 100 92 95 100 99 5 0 0 0 0 5 7 22 29 86 56 18 45 23 95 100 100 100 67
100 100 5 5 9 100 100 100 100 100 100 100 100 100 83 100 100 100 91 54 62 11 53 54 5 0 0 0 0 0 100 86 100 99 57 4 1 66 99 96 99 88 97
76 100 47 100 100 100 36 44 40 72 99 100 100 100 100 100 100 100 43 5 4 13 5 3 3 0 6 4 2 47 80 99 100 100 100 94 91 100 100 100 92 100 100
5 5 96 99 100 96 4 0 25 74 100 100 100 100 100 100 100 93 36 5 5 5 5 19 90 19 25 60 98 97 71 99 100 100 100 99 99 100 100 74 100 100 100
3 38 100 100 100 73 40 35 52 99 100 100 100 100 100 100 98 68 6 90 13 5 5 57 20 49 88 100 100 100 100 100 100 100 100 100 100 100 100 70 100 100 100
5 3 74 100 100 73 61 30 44 100 100 100 100 100 100 100 100 60 34 80 7 31 97 18 56 99 100 100 100 100 100 100 100 100 100 100 100 100 100 100 100 100 100
61 17 98 100 100 86 46 5 4 100 100 100 100 100 100 100 100 16 3 52 78 64 78 99 52 26 82 70 100 100 100 100 100 100 100 100 100 100 100 100 100 100 100